{"data":{"norad_id":68166,"intl_designator":"2026-049AA","name":"STARLINK-36273","alt_names":[],"object_type":"PAYLOAD","status":"ACTIVE","operator":null,"country":"US","launch_date":"2026-03-13","launch_site_code":"AFWTR","launch_vehicle":null,"mission":null,"orbit_class":"UNKNOWN","rcs_meters":null,"size_class":null,"mass_kg":null,"dimensions":null,"purposes":["comms"],"wikipedia_slug":null,"has_3d_model":false,"image_url":null,"decayed_at":null,"tle_current":{"epoch":"2026-09-20T00:38:09.293280Z","epoch_age_seconds":96036,"freshness":"FRESH","line1":"1 68166U 26049AA  26263.02649645  .00015314  00000+0  47597-3 0  9991","line2":"2 68166  97.2859 283.8296 0000663  99.1113 261.0205 15.33427590 29484","mean_motion":15.3342759,"eccentricity":6.63e-5,"inclination_deg":97.2859,"raan_deg":283.8296,"arg_perigee_deg":99.1113,"mean_anomaly_deg":261.0205,"bstar":0.00047597,"rev_number":2948,"period_min":93.907270835006,"perigee_km":465.14123544932,"apogee_km":466.04871430919,"semimajor_km":6843.7319748793,"source":"CELESTRAK","updated_at":"2026-09-20T09:00:43.797591Z"}}}